TimeCST,TemperatureF,Dew PointF,Humidity,Sea Level PressureIn,VisibilityMPH,Wind Direction,Wind SpeedMPH,Gust SpeedMPH,PrecipitationIn,Events,Conditions,WindDirDegrees,DateUTC
12:53 AM,34.0,27.0,75,30.01,10.0,NNE,4.6,-,N/A,,Clear,30,2013-02-24 06:53:00
1:53 AM,34.0,28.9,82,30.01,10.0,ENE,3.5,-,N/A,,Clear,60,2013-02-24 07:53:00
2:53 AM,33.1,27.0,78,30.00,10.0,ENE,4.6,-,N/A,,Clear,60,2013-02-24 08:53:00
3:53 AM,32.0,28.0,85,29.99,10.0,ENE,6.9,-,N/A,,Clear,60,2013-02-24 09:53:00
4:53 AM,33.1,28.0,82,29.99,10.0,ENE,5.8,-,N/A,,Clear,70,2013-02-24 10:53:00
5:53 AM,32.0,28.0,85,29.99,10.0,ENE,6.9,-,N/A,,Clear,70,2013-02-24 11:53:00
6:53 AM,33.1,28.0,82,30.00,10.0,East,6.9,-,N/A,,Clear,80,2013-02-24 12:53:00
7:53 AM,35.1,30.0,82,30.01,9.0,ENE,8.1,-,N/A,,Clear,70,2013-02-24 13:53:00
8:53 AM,39.9,32.0,73,30.03,10.0,ENE,13.8,-,N/A,,Clear,70,2013-02-24 14:53:00
9:53 AM,45.0,34.0,65,30.03,10.0,ENE,10.4,-,N/A,,Clear,70,2013-02-24 15:53:00
10:53 AM,48.9,36.0,61,30.01,10.0,ENE,11.5,-,N/A,,Clear,70,2013-02-24 16:53:00
11:53 AM,53.1,34.0,48,29.99,10.0,ESE,13.8,20.7,N/A,,Clear,120,2013-02-24 17:53:00
12:53 PM,55.9,34.0,44,29.95,10.0,East,11.5,-,N/A,,Clear,100,2013-02-24 18:53:00
1:53 PM,57.9,35.1,42,29.91,10.0,East,9.2,20.7,N/A,,Clear,100,2013-02-24 19:53:00
2:53 PM,61.0,36.0,39,29.88,10.0,East,9.2,-,N/A,,Clear,90,2013-02-24 20:53:00
3:53 PM,61.0,35.1,38,29.86,10.0,East,15.0,20.7,N/A,,Clear,80,2013-02-24 21:53:00
4:53 PM,57.0,37.0,47,29.83,10.0,ENE,17.3,-,N/A,,Clear,70,2013-02-24 22:53:00
5:53 PM,54.0,36.0,51,29.83,10.0,East,17.3,23.0,N/A,,Clear,80,2013-02-24 23:53:00
6:53 PM,52.0,35.1,53,29.86,10.0,East,11.5,-,N/A,,Clear,90,2013-02-25 00:53:00
7:53 PM,50.0,35.1,57,29.86,10.0,East,9.2,-,N/A,,Clear,80,2013-02-25 01:53:00
8:53 PM,50.0,34.0,54,29.83,10.0,East,11.5,-,N/A,,Clear,90,2013-02-25 02:53:00
9:53 PM,48.0,34.0,58,29.85,10.0,East,11.5,-,N/A,,Clear,90,2013-02-25 03:53:00
10:53 PM,45.0,34.0,65,29.86,10.0,ENE,11.5,-,N/A,,Clear,70,2013-02-25 04:53:00
11:53 PM,45.0,35.1,68,29.83,10.0,ENE,12.7,-,N/A,,Clear,60,2013-02-25 05:53:00